STARLINK-35507, 66327

Orbit data source: Space-Track

STARLINK-35507, 66327 is a payload satellite owned by SpaceX/Seattle (US) in LEO that was launched on Thu, 06 Nov 2025 UTC via an FALCON 9 launch vehicle from the Air Force Eastern Test Range (AFETR). Payload-class satellites include a variety of spacecraft equipped with specific instruments for various scientific and technological missions. These include communications satellites like Starlink; space stations such as the ISS; scientific satellites like the Hubble; Earth observation satellites from companies like Planet Labs, Umbra, and HawkEye 360; GPS; miniature CubeSats for education and research; and military/defense satellites.

Loading next visibility...
Identifier
66327, 2025-253J
Orbit
LEO
Country
Flag of USUS
Related business
Manufacturer
SpaceX/Seattle
Mission
Operational Commercial Communications
Bus & Motor
STARLINK V2MO, Unknown motor
Mass
575 kg wet, ~530 kg dry
Launch date (UTC)
2025-11-06 (7 months ago)
Launch vehicle
FALCON 9
Launch site
Air Force Eastern Test Range (AFETR)
Object type
Payload
Rocket body
Debris
Shape & HBR
Box + 2 Pan, 17.7 m
Radar Cross Section
36.964 m², Large (>1 m²)

Expand to show TLE details & history
Last TLE update: 13 hours ago

TLE from 13 hours ago
0 STARLINK-35507
1 66327U 25253J   26170.60385455  .00016644  00000-0  61292-3 0  9997
2 66327  43.0022 356.7184 0000701 255.2367 104.8407 15.27583857 35833
Epoch: 2026-06-19T14:29Z
TLE epoch observation values (Epoch: 2026-06-19T14:29:33.033Z)
Latitude
-0°
Longitude
-128.49969°
Altitude
482.936 km
Speed
7.626 km/s
True Right ascension
23h 46m 52s
True Declination
0° 00' 00"
Sunlit
Object was in daylight at epoch
Visualization orbit readout
Latitude
Unknown
Longitude
Unknown
Altitude
Unknown
Speed
Unknown
Apparent Right ascension
Unknown
Apparent Declination
Unknown
Sunlit
N/A
Visualization observer readout
Local Sidereal Time
14:37:36
Azimuth
Unknown
Elevation
Unknown
Doppler factor
Unknown
Orbital elements
Apogee altitude
485.463 km
Perigee altitude
484.501 km
Semi-major axis
6,863.119 km
Eccentricity
0.00007
Inclination
43.0022°
RAAN
356.7184°
Arg. of periapsis
255.2367°
True anomaly
104.84846°
Mean anomaly
104.8407°
Eccentric anomaly
104.84458°
Mean motion
3.81734 °/min
Orbital period
94.31 mins
BSTAR
0.00061292
Loading maneuver chart data...
Computing Atmospheric mass density...
Loading historical data...
Loading historical data...
Loading historical data...
Loading historical data...
Loading historical data...
Loading historical data...
Loading historical data...

Documentation

Showing up to 5 results
|